Retour au catalogue

ARIANE 3 DEB

ActifHEO
NORAD 18571·DEBRIS·🇫🇷 France

Lancé Sep 16, 1987 depuis Guiana Space Centre

Loading…

Prochains Passages (prochaines 24 heures)

TLE

FraisSource: Space-Track

Époque: Sep 14, 2026, 08:32 UTC

1 18571U 87078F   26257.35600352  .00000626  00000-0  88162-3 0  9990
2 18571   6.7734  53.8888 5569182 182.5283 172.7714  4.53874655433451

Suivez ARIANE 3 DEB en temps réel avec AllMySat

Download on the App Store